Home > Weather > Port Said > Past weeks

Flag for Egypt Weather for the Past 2 Weeks in Port Said, Egypt

Now
59 °F

Clear.


Feels Like: 58 °F
Forecast: 54 / 59 °F
Wind: 7 mph from Northwest

Location: Port Said Airport

Current Time: Feb 9, 2016 at 2:14:09 PM

Latest Report: Feb 9, 2016 at 12:00 PM


Visibility: 4 mi

Pressure: 30.21 "Hg

Humidity: 55%

Dew point: 43 °F

Location of Port SaidLocation

Historic Weather in Port Said — Graph

°F

Port Said Temperature Yesterday

Maximum temperature yesterday: 61 °F (at 1:00 PM)
Minimum temperature yesterday: 50 °F (at 8:00 AM)
Average temperature yesterday: 55 °F

High & Low Weather Summary for the Past Weeks

 TemperatureHumidityPressure
High68 °F (Feb 3, 2:00 PM)100% (Feb 6, 5:00 AM)30.48 "Hg (Feb 6, 5:00 AM)
Low45 °F (Jan 26, 5:00 AM)44% (Jan 28, 3:00 PM)29.92 "Hg (Feb 4, 10:00 PM)
Average56 °F78%30.22 "Hg
* Reported Jan 25 12:00 Noon — Feb 9 12:00 Noon, Port Said, Weather by CustomWeather, © 2016

Note: Actual official high and low records may vary slightly from our data, if they occured in-between our weather recording intervals... More about our weather records

Advertising

Port Said Weather History for the Previous 24 Hours

 ConditionsComfort  
Time TempWeatherWind HumidityBarometerVisibility
12:00 PM
Tue, Feb 9
59 °FClear.7 mph55%30.21 "Hg4 mi
11:00 AM59 °FClear.8 mph55%30.24 "Hg4 mi
10:00 AM57 °FHaze.3 mph67%30.24 "Hg2 mi
9:00 AM54 °FFog.7 mph77%30.24 "Hg1 mi
8:00 AM50 °FFog.3 mph88%30.24 "Hg1 mi
7:00 AM50 °FFog.6 mph88%30.24 "Hg1 mi
6:00 AM50 °FFog.6 mph88%30.24 "Hg1 mi
5:00 AM50 °FClear.6 mph88%30.21 "Hg4 mi
4:00 AM48 °FClear.5 mph94%30.24 "Hg10 mi
3:00 AM48 °FClear.6 mph94%30.24 "Hg10 mi
2:00 AM48 °FClear.5 mph94%30.24 "Hg10 mi
1:00 AM54 °FClear.3 mph77%30.24 "Hg10 mi
12:00 AM54 °FClear.3 mph77%30.27 "Hg10 mi
11:00 PM
Mon, Feb 8
54 °FPassing clouds.6 mph77%30.27 "HgN/A
10:00 PM55 °FPassing clouds.3 mph72%30.27 "HgN/A
9:00 PM55 °FPassing clouds.N/A72%30.24 "HgN/A
8:00 PM57 °FPassing clouds.8 mph67%30.24 "HgN/A
7:00 PM57 °FPassing clouds.9 mph67%30.24 "HgN/A
6:00 PM57 °FPassing clouds.10 mph72%30.21 "HgN/A
5:00 PM59 °FScattered clouds.12 mph68%30.21 "HgN/A
4:00 PM61 °FPassing clouds.9 mph63%30.21 "HgN/A
3:00 PM61 °FPassing clouds.8 mph63%30.21 "HgN/A
2:00 PM61 °FPassing clouds.10 mph63%30.21 "HgN/A
Weather by CustomWeather, © 2016

See weather overviewHow to use our weather pages